This is the latest recevied weather packets stored in our database for station/object KD8NVS-13. If no packets are shown the sender has not sent any weather packets the latest 10 day(s).
| Time | Temp. | Humidity | Pressure | Rain* | Wind** | Luminosity | Snow |
|---|---|---|---|---|---|---|---|
| 1777855638 | 11.11° C | 68% | 1003.8 hPa | 0 mm | - | 0 W/m² | - |
| 1777855335 | 11.11° C | 67% | 1003.8 hPa | 0 mm | - | 0 W/m² | - |
| 1777855032 | 11.11° C | 67% | 1003.8 hPa | 0 mm | - | 0 W/m² | - |
| 1777854729 | 11.11° C | 66% | 1003.8 hPa | 0 mm | - | 1 W/m² | - |
| 1777854425 | 11.11° C | 66% | 1003.8 hPa | 0 mm | - | 2 W/m² | - |
| 1777854123 | 11.67° C | 66% | 1003.8 hPa | 0 mm | - | 3 W/m² | - |
| 1777853820 | 11.67° C | 64% | 1003.8 hPa | 0 mm | - | 3 W/m² | - |
| 1777853516 | 11.67° C | 64% | 1003.8 hPa | 0 mm | - | 3 W/m² | - |
| 1777853213 | 11.67° C | 65% | 1004.2 hPa | 0 mm | - | 4 W/m² | - |
| 1777852911 | 11.67° C | 64% | 1004.2 hPa | 0 mm | - | 4 W/m² | - |
| 1777852609 | 11.67° C | 65% | 1004.5 hPa | 0 mm | - | 9 W/m² | - |
| 1777852305 | 11.67° C | 62% | 1004.5 hPa | 0 mm | - | 15 W/m² | - |
| 1777852003 | 12.22° C | 60% | 1004.9 hPa | 0 mm | - | 14 W/m² | - |
| 1777851701 | 12.22° C | 57% | 1004.9 hPa | 0 mm | - | 16 W/m² | - |
| 1777851398 | 12.78° C | 55% | 1004.9 hPa | 0 mm | - | 22 W/m² | - |
| 1777851093 | 13.33° C | 52% | 1004.9 hPa | 0 mm | - | 27 W/m² | - |
| 1777850790 | 13.33° C | 52% | 1004.5 hPa | 0 mm | - | 29 W/m² | - |
| 1777850488 | 13.33° C | 50% | 1004.5 hPa | 0 mm | - | 30 W/m² | - |
| 1777850186 | 13.33° C | 49% | 1004.5 hPa | 0 mm | - | 32 W/m² | - |
| 1777849882 | 13.89° C | 48% | 1004.5 hPa | 0 mm | - | 40 W/m² | - |
| 1777849579 | 13.89° C | 47% | 1004.5 hPa | 0 mm | - | 42 W/m² | - |
| 1777849276 | 13.89° C | 45% | 1004.5 hPa | 0 mm | - | 46 W/m² | - |
| 1777848974 | 14.44° C | 44% | 1004.2 hPa | 0 mm | - | 51 W/m² | - |
| 1777848673 | 15° C | 41% | 1004.2 hPa | 0 mm | - | 51 W/m² | - |
| 1777848371 | 15.56° C | 41% | 1004.2 hPa | 0 mm | - | 51 W/m² | - |
* Rain latest hour (hover to see other rain measurements)
** Current wind speed in m/s (hover to see current wind gust speed)